This is the latest recevied weather packets stored in our database for station/object W8BS. If no packets are shown the sender has not sent any weather packets the latest 10 day(s).
| Time | Temp. | Humidity | Pressure | Rain* | Wind** | Luminosity | Snow |
|---|---|---|---|---|---|---|---|
| 1777425517 | 15.56° C | 94% | 1014.7 hPa | 0 mm | - | 0 W/m² | - |
| 1777425212 | 15.56° C | 93% | 1014.6 hPa | 0 mm | - | 0 W/m² | - |
| 1777424911 | 16.11° C | 93% | 1014.6 hPa | 0 mm | - | 0 W/m² | - |
| 1777424606 | 16.11° C | 92% | 1014.5 hPa | 0 mm | - | 0 W/m² | - |
| 1777424301 | 16.11° C | 92% | 1014.7 hPa | 0 mm | - | 0 W/m² | - |
| 1777423997 | 16.11° C | 92% | 1014.8 hPa | 0 mm | - | 0 W/m² | - |
| 1777423694 | 16.11° C | 92% | 1014.7 hPa | 0 mm | - | 0 W/m² | - |
| 1777423390 | 16.11° C | 91% | 1014.7 hPa | 0 mm | - | 0 W/m² | - |
| 1777423085 | 16.11° C | 91% | 1014.6 hPa | 0 mm | - | 0 W/m² | - |
| 1777422780 | 16.67° C | 91% | 1014.5 hPa | 0 mm | - | 0 W/m² | - |
| 1777422476 | 16.67° C | 90% | 1014.3 hPa | 0 mm | - | 0 W/m² | - |
| 1777422171 | 16.67° C | 89% | 1013.9 hPa | 0 mm | - | 0 W/m² | - |
| 1777421871 | 16.67° C | 88% | 1013.8 hPa | 0 mm | - | 0 W/m² | - |
| 1777421566 | 17.22° C | 87% | 1013.8 hPa | 0 mm | - | 0 W/m² | - |
| 1777421262 | 17.22° C | 86% | 1013.8 hPa | 0 mm | - | 1 W/m² | - |
| 1777420958 | 17.78° C | 85% | 1013.7 hPa | 0 mm | - | 3 W/m² | - |
| 1777420655 | 17.78° C | 85% | 1013.7 hPa | 0 mm | - | 5 W/m² | - |
| 1777420351 | 17.78° C | 81% | 1013.3 hPa | 0 mm | - | 9 W/m² | - |
| 1777420047 | 18.33° C | 81% | 1013.3 hPa | 0 mm | - | 17 W/m² | - |
| 1777419744 | 18.33° C | 80% | 1013.8 hPa | 0 mm | - | 25 W/m² | - |
| 1777419441 | 18.33° C | 79% | 1013.8 hPa | 0 mm | - | 20 W/m² | - |
| 1777419140 | 18.89° C | 79% | 1013.9 hPa | 0 mm | - | 19 W/m² | - |
| 1777418835 | 18.89° C | 78% | 1013.8 hPa | 0 mm | - | 22 W/m² | - |
| 1777418532 | 18.89° C | 78% | 1014 hPa | 0 mm | - | 19 W/m² | - |
| 1777418229 | 18.89° C | 77% | 1014 hPa | 0 mm | - | 29 W/m² | - |
* Rain latest hour (hover to see other rain measurements)
** Current wind speed in m/s (hover to see current wind gust speed)